Piarco, Trinidad And Tobago

10:30 PM AST on September 24, 2016 (GMT -0400)
Piarco International

Weather History for TTPP - August, 2013

Change the Weather History Date:

Saturday, August 31, 2013

  Actual Average Record
Temperature  
Mean Temperature 81 °F -  
Max Temperature 89 °F 88 °F 95 °F (2004)
Min Temperature 73 °F 74 °F 73 °F (2003)
Cooling Degree Days 16    
Growing Degree Days 31 (Base 50)    
Moisture  
Dew Point 74 °F    
Average Humidity 80    
Maximum Humidity 94    
Minimum Humidity 55    
Precipitation  
Precipitation 0.00 in - - ()
Sea Level Pressure  
Sea Level Pressure 29.92 in    
Wind  
Wind Speed 2 mph ()    
Max Wind Speed 14 mph    
Max Gust Speed 23 mph    
Visibility 7.0 miles    
Events Rain    
Averages and records for this station are not official NWS values.
T = Trace of Precipitation, MM = Missing Value Source: Averaged Metar Reports

Daily Weather History Graph

Daily Weather History Graph

Search for Another Location

Airport or City:

Trip Planner

Search our weather history database for the weather conditions in past years. The results will help you decide how hot, cold, wet, or windy it might be!

Date:

Astronomy

Aug. 31, 2013 Rise Set
Actual Time 5:55 AM AST 6:15 PM AST
Civil Twilight 5:34 AM AST 6:36 PM AST
Nautical Twilight 5:09 AM AST 7:01 PM AST
Astronomical Twilight 4:44 AM AST 7:26 PM AST
Moon 1:50 AM AST (8/31) 2:42 PM AST (8/31)
Length of Visible Light 13h 01m
Length of Day
12h 19m
Waning Crescent, 21% of the Moon is Illuminated
Aug 31
Waning Crescent
Sep 5
New
Sep 12
First Quarter
Sep 19
Full
Sep 26
Last Quarter

Hourly Weather History & Observations

Time (AST) Temp. Heat Index Dew Point Humidity Pressure Visibility Wind Dir Wind Speed Gust Speed Precip Events Conditions
12:00 AM 77.0 °F - 75.2 °F 94% 29.95 in 6.2 mi Calm Calm - N/A   Mostly Cloudy
1:00 AM 75.2 °F - 73.4 °F 94% 29.92 in 6.2 mi Calm Calm - N/A   Mostly Cloudy
2:00 AM 75.2 °F - 73.4 °F 94% 29.92 in 6.2 mi Calm Calm - N/A   Mostly Cloudy
3:00 AM 75.2 °F - 73.4 °F 94% 29.89 in 6.2 mi Calm Calm - N/A   Mostly Cloudy
4:00 AM 75.2 °F - 73.4 °F 94% 29.92 in 6.2 mi Calm Calm - N/A   Mostly Cloudy
5:00 AM 74 °F - 72 °F 92% 29.91 in 9 mi Calm Calm - -   Mist
5:00 AM 75.2 °F - 71.6 °F 89% 29.89 in 6.2 mi Calm Calm - N/A   Mostly Cloudy
6:00 AM 73.4 °F - 71.6 °F 94% 29.92 in 6.2 mi Calm Calm - N/A   Mostly Cloudy
7:00 AM 77.0 °F - 71.6 °F 83% 29.95 in 6.2 mi Calm Calm - N/A   Mostly Cloudy
8:00 AM 80 °F - 74 °F 78% 29.96 in 12 mi Calm Calm - -   Scattered Clouds
8:00 AM 80.6 °F 86.2 °F 75.2 °F 84% 29.95 in 6.2 mi Calm Calm - N/A   Mostly Cloudy
9:00 AM 86.0 °F 95.1 °F 75.2 °F 70% 29.95 in 6.2 mi WSW 5.8 mph - N/A   Mostly Cloudy
10:00 AM 86.0 °F 93.4 °F 73.4 °F 66% 29.95 in 6.2 mi West 5.8 mph - N/A   Mostly Cloudy
11:00 AM 88 °F - 74 °F 55% 29.96 in 12 mi WSW 10.4 mph - -   Partly Cloudy
11:00 AM 87.8 °F 95.6 °F 73.4 °F 62% 29.95 in 6.2 mi WSW 10.4 mph - N/A   Scattered Clouds
12:00 PM 87.8 °F 93.8 °F 71.6 °F 58% 29.92 in 6.2 mi WSW 13.8 mph - N/A   Scattered Clouds
1:00 PM 87.8 °F 95.6 °F 73.4 °F 62% 29.92 in 3.1 mi NNW 11.5 mph 23.0 mph N/A   Scattered Clouds
2:00 PM 80.6 °F 85.4 °F 73.4 °F 79% 2.98 in 6.2 mi ENE 4.6 mph - N/A Rain Light Rain
3:00 PM 86.0 °F 95.1 °F 75.2 °F 70% 29.86 in 6.2 mi ENE 3.5 mph - N/A   Mostly Cloudy
4:00 PM 84.2 °F 90.9 °F 73.4 °F 70% 29.86 in 6.2 mi NE 3.5 mph - N/A   Mostly Cloudy
5:00 PM 84.2 °F 90.9 °F 73.4 °F 70% 29.86 in 6.2 mi NNW 3.5 mph - N/A   Mostly Cloudy
6:00 PM 82.4 °F 89.5 °F 75.2 °F 79% 29.86 in 6.2 mi North 3.5 mph - N/A   Mostly Cloudy
7:00 PM 82.4 °F 89.5 °F 75.2 °F 79% 29.89 in 6.2 mi Calm Calm - N/A   Mostly Cloudy
8:00 PM 81 °F - 75 °F 76% 29.91 in 12 mi Calm Calm - -   Haze
8:00 PM 80.6 °F 86.2 °F 75.2 °F 84% 29.89 in 6.2 mi Calm Calm - N/A   Mostly Cloudy
9:00 PM 80.6 °F 87.1 °F 77.0 °F 89% 29.92 in 6.2 mi Calm Calm - N/A   Mostly Cloudy
10:00 PM 78.8 °F - 75.2 °F 89% 29.92 in 6.2 mi Calm Calm - N/A   Mostly Cloudy
11:00 PM 78 °F - 75 °F 88% 29.94 in 11 mi Calm Calm - -   Scattered Clouds
11:00 PM 77.0 °F - 75.2 °F 94% 29.92 in 6.2 mi Calm Calm - N/A   Mostly Cloudy